Wildwood, NJ

6:29 PM EDT on May 21, 2018 (GMT -0400)
Cape May County

Weather History for KWWD - June, 2013

Change the Weather History Date:

Tuesday, June 11, 2013

  Actual Average Record
Temperature  
Mean Temperature 76 °F -  
Max Temperature 82 °F 73 °F 91 °F (2000)
Min Temperature 69 °F 60 °F 57 °F (2004)
Cooling Degree Days 10    
Growing Degree Days 26 (Base 50)    
Moisture  
Dew Point 66 °F    
Average Humidity 74    
Maximum Humidity 88    
Minimum Humidity 58    
Precipitation  
Precipitation 0.04 in - - ()
Sea Level Pressure  
Sea Level Pressure 29.79 in    
Wind  
Wind Speed 12 mph (WSW)    
Max Wind Speed 18 mph    
Max Gust Speed 25 mph    
Visibility 10 miles    
Events      
Averages and records for this station are not official NWS values.
T = Trace of Precipitation, MM = Missing Value Source: NWS Daily Summary

Daily Weather History Graph

Daily Weather History Graph

Search for Another Location

Airport or City:

Astronomy

Jun. 11, 2013 Rise Set
Actual Time 5:33 AM EDT 8:25 PM EDT
Civil Twilight 5:01 AM EDT 8:57 PM EDT
Nautical Twilight 4:21 AM EDT 9:37 PM EDT
Astronomical Twilight 3:35 AM EDT 10:24 PM EDT
Moon 8:13 AM EDT (6/11) 10:28 PM EDT (6/11)
Length of Visible Light 15h 56m
Length of Day
14h 52m
Waxing Crescent, 8% of the Moon is Illuminated
Jun 11
Waxing Crescent
Jun 16
First Quarter
Jun 23
Full
Jun 30
Last Quarter
Jul 8
New

Hourly Weather History & Observations

Time (EDT) Temp. Heat Index Dew Point Humidity Pressure Visibility Wind Dir Wind Speed Gust Speed Precip Events Conditions
12:15 AM 69.8 °F - 66.2 °F 88% 29.84 in 9.0 mi SSW 10.4 mph - 0.01 in   Mostly Cloudy
12:35 AM 71.6 °F - 68.0 °F 88% 29.83 in 10.0 mi SSW 18.4 mph 25.3 mph 0.03 in   Mostly Cloudy
12:55 AM 71.6 °F - 66.2 °F 83% 29.83 in 9.0 mi SSW 17.3 mph 24.2 mph 0.04 in   Mostly Cloudy
1:15 AM 69.8 °F - 66.2 °F 88% 29.83 in 10.0 mi SW 12.7 mph - N/A   Mostly Cloudy
1:35 AM 69.8 °F - 64.4 °F 83% 29.82 in 10.0 mi SW 13.8 mph 18.4 mph N/A   Mostly Cloudy
1:55 AM 69.8 °F - 64.4 °F 83% 29.82 in 10.0 mi SSW 11.5 mph - N/A   Scattered Clouds
2:15 AM 69.8 °F - 66.2 °F 88% 29.81 in 10.0 mi South 10.4 mph - N/A   Clear
2:35 AM 69.8 °F - 66.2 °F 88% 29.81 in 10.0 mi South 11.5 mph - N/A   Clear
2:55 AM 69.8 °F - 66.2 °F 88% 29.80 in 10.0 mi South 10.4 mph - N/A   Clear
3:15 AM 69.8 °F - 66.2 °F 88% 29.80 in 10.0 mi South 11.5 mph - N/A   Clear
3:35 AM 69.8 °F - 66.2 °F 88% 29.80 in 9.0 mi SSW 8.1 mph - N/A   Clear
3:55 AM 69.8 °F - 66.2 °F 88% 29.80 in 10.0 mi SSW 5.8 mph - N/A   Mostly Cloudy
4:15 AM 69.8 °F - 66.2 °F 88% 29.80 in 10.0 mi SW 11.5 mph - N/A   Scattered Clouds
4:35 AM 71.6 °F - 66.2 °F 83% 29.80 in 10.0 mi SW 10.4 mph - N/A   Clear
4:55 AM 69.8 °F - 66.2 °F 88% 29.81 in 10.0 mi SW 12.7 mph - N/A   Partly Cloudy
5:15 AM 71.6 °F - 66.2 °F 83% 29.81 in 10.0 mi SW 11.5 mph - N/A   Mostly Cloudy
5:35 AM 69.8 °F - 66.2 °F 88% 29.81 in 10.0 mi SW 11.5 mph - N/A   Overcast
5:55 AM 69.8 °F - 66.2 °F 88% 29.81 in 10.0 mi WSW 10.4 mph - N/A   Mostly Cloudy
6:15 AM 69.8 °F - 66.2 °F 88% 29.81 in 10.0 mi WSW 10.4 mph - N/A   Partly Cloudy
6:35 AM 69.8 °F - 66.2 °F 88% 29.81 in 10.0 mi WSW 10.4 mph - N/A   Clear
6:55 AM 71.6 °F - 66.2 °F 83% 29.82 in 10.0 mi WSW 11.5 mph - N/A   Clear
7:15 AM 71.6 °F - 68.0 °F 88% 29.82 in 10.0 mi WSW 11.5 mph - N/A   Clear
7:35 AM 71.6 °F - 68.0 °F 88% 29.82 in 10.0 mi SW 11.5 mph - N/A   Clear
7:55 AM 71.6 °F - 68.0 °F 88% 29.82 in 10.0 mi WSW 12.7 mph 20.7 mph N/A   Clear
8:15 AM 73.4 °F - 68.0 °F 83% 29.82 in 10.0 mi SW 13.8 mph 19.6 mph N/A   Clear
8:35 AM 73.4 °F - 68.0 °F 83% 29.82 in 10.0 mi WSW 12.7 mph 17.3 mph N/A   Clear
8:55 AM 73.4 °F - 68.0 °F 83% 29.82 in 10.0 mi WSW 10.4 mph 19.6 mph N/A   Clear
9:15 AM 73.4 °F - 68.0 °F 83% 29.82 in 10.0 mi WSW 12.7 mph 17.3 mph N/A   Clear
9:35 AM 73.4 °F - 68.0 °F 83% 29.81 in 10.0 mi WSW 10.4 mph - N/A   Clear
9:55 AM 73.4 °F - 68.0 °F 83% 29.81 in 10.0 mi WSW 10.4 mph - N/A   Clear
10:15 AM 75.2 °F - 68.0 °F 78% 29.81 in 10.0 mi WSW 12.7 mph - N/A   Clear
10:35 AM 73.4 °F - 68.0 °F 83% 29.81 in 10.0 mi WSW 13.8 mph - N/A   Clear
10:55 AM 75.2 °F - 68.0 °F 78% 29.81 in 10.0 mi WSW 10.4 mph - N/A   Clear
11:15 AM 75.2 °F - 68.0 °F 78% 29.80 in 10.0 mi WSW 10.4 mph - N/A   Clear
11:35 AM 78.8 °F - 69.8 °F 74% 29.80 in 10.0 mi WSW 13.8 mph - N/A   Clear
11:55 AM 78.8 °F - 66.2 °F 65% 29.79 in 10.0 mi WSW 12.7 mph 18.4 mph N/A   Clear
12:15 PM 78.8 °F - 66.2 °F 65% 29.79 in 10.0 mi WSW 12.7 mph - N/A   Partly Cloudy
12:35 PM 78.8 °F - 66.2 °F 65% 29.79 in 10.0 mi WSW 13.8 mph - N/A   Partly Cloudy
12:55 PM 78.8 °F - 66.2 °F 65% 29.79 in 10.0 mi WSW 10.4 mph 17.3 mph N/A   Clear
1:15 PM 80.6 °F 82.7 °F 66.2 °F 61% 29.78 in 10.0 mi WSW 10.4 mph - N/A   Clear
1:35 PM 80.6 °F 82.7 °F 66.2 °F 61% 29.78 in 10.0 mi WSW 9.2 mph - N/A   Clear
1:55 PM 80.6 °F 82.7 °F 66.2 °F 61% 29.77 in 10.0 mi SW 10.4 mph - N/A   Clear
2:15 PM 80.6 °F 82.7 °F 66.2 °F 61% 29.77 in 10.0 mi SW 10.4 mph - N/A   Mostly Cloudy
2:35 PM 82.4 °F 84.6 °F 66.2 °F 58% 29.77 in 10.0 mi WSW 12.7 mph 17.3 mph N/A   Partly Cloudy
2:55 PM 80.6 °F 82.7 °F 66.2 °F 61% 29.77 in 10.0 mi WSW 11.5 mph 17.3 mph N/A   Mostly Cloudy
3:15 PM 80.6 °F 82.7 °F 66.2 °F 61% 29.76 in 10.0 mi WSW 6.9 mph - N/A   Scattered Clouds
3:35 PM 80.6 °F 82.7 °F 66.2 °F 61% 29.75 in 10.0 mi West 10.4 mph - N/A   Clear
3:55 PM 82.4 °F 84.6 °F 66.2 °F 58% 29.75 in 10.0 mi West 9.2 mph 17.3 mph N/A   Scattered Clouds
4:15 PM 80.6 °F 82.3 °F 64.4 °F 58% 29.75 in 10.0 mi West 11.5 mph 16.1 mph N/A   Scattered Clouds
4:35 PM 80.6 °F 82.7 °F 66.2 °F 61% 29.75 in 10.0 mi West 13.8 mph 21.9 mph N/A   Scattered Clouds
4:55 PM 80.6 °F 82.7 °F 66.2 °F 61% 29.74 in 10.0 mi West 15.0 mph - N/A   Mostly Cloudy
5:15 PM 80.6 °F 82.3 °F 64.4 °F 58% 29.75 in 10.0 mi West 13.8 mph - N/A   Mostly Cloudy
5:35 PM 80.6 °F 82.3 °F 64.4 °F 58% 29.74 in 10.0 mi West 13.8 mph - N/A   Mostly Cloudy
5:55 PM 78.8 °F - 64.4 °F 61% 29.74 in 10.0 mi West 10.4 mph 16.1 mph N/A   Mostly Cloudy
6:15 PM 78.8 °F - 64.4 °F 61% 29.74 in 10.0 mi West 9.2 mph - N/A   Overcast
6:35 PM 78.8 °F - 64.4 °F 61% 29.74 in 10.0 mi West 8.1 mph - N/A   Overcast
6:55 PM 78.8 °F - 64.4 °F 61% 29.74 in 10.0 mi West 10.4 mph - N/A   Mostly Cloudy
7:15 PM 78.8 °F - 64.4 °F 61% 29.75 in 10.0 mi WSW 8.1 mph - N/A   Scattered Clouds
7:35 PM 77.0 °F - 64.4 °F 65% 29.75 in 10.0 mi WSW 10.4 mph - N/A   Scattered Clouds
7:55 PM 77.0 °F - 64.4 °F 65% 29.75 in 10.0 mi West 10.4 mph - N/A   Mostly Cloudy
8:15 PM 77.0 °F - 64.4 °F 65% 29.76 in 10.0 mi West 9.2 mph - N/A   Overcast
8:35 PM 77.0 °F - 64.4 °F 65% 29.77 in 10.0 mi West 16.1 mph 20.7 mph N/A   Overcast
8:55 PM 77.0 °F - 64.4 °F 65% 29.77 in 10.0 mi West 10.4 mph 17.3 mph N/A   Mostly Cloudy
9:15 PM 75.2 °F - 64.4 °F 69% 29.77 in 10.0 mi West 9.2 mph - N/A   Partly Cloudy
9:35 PM 75.2 °F - 64.4 °F 69% 29.78 in 10.0 mi West 10.4 mph - N/A   Clear
9:55 PM 75.2 °F - 64.4 °F 69% 29.79 in 10.0 mi West 9.2 mph 16.1 mph N/A   Clear
10:15 PM 75.2 °F - 64.4 °F 69% 29.80 in 10.0 mi West 8.1 mph - N/A   Clear
10:35 PM 75.2 °F - 64.4 °F 69% 29.80 in 10.0 mi West 10.4 mph - N/A   Clear
10:55 PM 73.4 °F - 64.4 °F 73% 29.80 in 10.0 mi West 10.4 mph - N/A   Clear
11:15 PM 73.4 °F - 64.4 °F 73% 29.81 in 10.0 mi West 9.2 mph 16.1 mph N/A   Clear
11:35 PM 73.4 °F - 64.4 °F 73% 29.81 in 10.0 mi West 9.2 mph - N/A   Clear
11:55 PM 73.4 °F - 64.4 °F 73% 29.82 in 10.0 mi West 9.2 mph - N/A   Partly Cloudy